Location: Praha
(50.0830°N, 14.4670°E)
Time: 07:03:33
(UTC+01:00)

ISS - Pass Details

Date: 27 November 2019
Orbit: 411 x 421 km, 51.6° (Epoch: 15 December)

Event Time Altitude Azimuth Distance (km) Brightness Sun altitude
Rises 17:35:46 0° 240° (WSW) 2,349 1.7 -13.9°
Reaches altitude 10° 17:37:52 10° 236° (SW) 1,491 0.3 -14.2°
Maximum altitude 17:41:10 60° 156° (SSE) 485 -3.6 -14.7°
Enters shadow 17:42:29 32° 89° (E) 744 -3.1 -14.9°
